Flag for U.S.A. Weather past 2 weeks in Augusta, Georgia, U.S.A.

Now
90 °F

Scattered clouds.


Feels Like: 90 °F
Forecast: 67 / 86 °F
Wind: N/A

Location: Daniel Field

Current Time: Jul 30, 2014 at 5:58:45 PM

Latest Report: Jul 30, 2014 at 4:53 PM


Visibility: 10 mi

Pressure: 29.96 "Hg

Humidity: 37%

Dew point: 60 °F

Location of AugustaLocation

Historic Weather in Augusta — Graph

°F

Augusta temperature yesterday

Maximum temperature yesterday: 88 °F (at 2:53 PM)
Minimum temperature yesterday: 71 °F (at 6:53 AM)
Average temperature yesterday: 81 °F

Past Weeks' High & Low Weather Summary

 TemperatureHumidityPressure
High96 °F (Jul 28, 4:53 PM)97% (Jul 19, 9:53 PM)30.14 "Hg (Jul 19, 9:53 PM)
Low70 °F (Jul 17, 6:53 AM)31% (Jul 26, 5:53 PM)29.80 "Hg (Jul 28, 4:53 PM)
Average81 °F69%29.99 "Hg
* Reported Jul 15 4:53 PM — Jul 30 4:53 PM, Augusta, Weather by CustomWeather, © 2014

Note: Actual official high and low records may vary slightly from our data, if they occured in-between our weather recording intervals... More about our weather records

Advertising

Augusta weather history for previous 24 hours

 ConditionsComfort  
Time TempWeatherWind HumidityBarometerVisibility
4:53 PM
Jul 30
90 °FScattered clouds.N/A37%29.96 "Hg10 mi
3:53 PM90 °FScattered clouds.3 mph34%29.96 "Hg10 mi
2:53 PM91 °FSunny.6 mph33%29.97 "Hg10 mi
1:53 PM87 °FScattered clouds.3 mph40%29.99 "Hg10 mi
12:53 PM86 °FPassing clouds.6 mph46%30.01 "Hg10 mi
11:53 AM84 °FSunny.6 mph48%30.01 "Hg10 mi
10:53 AM83 °FSunny.7 mph46%30.02 "Hg10 mi
9:53 AM79 °FSunny.8 mph50%30.01 "Hg10 mi
8:53 AM75 °FSunny.7 mph58%30.01 "Hg10 mi
7:53 AM72 °FPassing clouds.7 mph61%29.99 "Hg10 mi
6:53 AM70 °FPassing clouds.7 mph64%29.99 "Hg10 mi
5:53 AM71 °FClear.7 mph63%29.98 "Hg10 mi
4:53 AM71 °FClear.10 mph68%29.97 "Hg10 mi
3:53 AM73 °FClear.9 mph64%29.96 "Hg10 mi
2:53 AM75 °FClear.7 mph58%29.95 "Hg10 mi
1:53 AM76 °FClear.7 mph56%29.96 "Hg10 mi
12:53 AM79 °FPartly cloudy.8 mph48%29.96 "Hg10 mi
11:53 PM
Jul 29
79 °FPassing clouds.5 mph52%29.96 "Hg10 mi
10:53 PM81 °FPassing clouds.5 mph47%29.95 "Hg10 mi
9:53 PM82 °FMostly cloudy.3 mph48%29.95 "Hg10 mi
8:53 PM83 °FScattered clouds.3 mph44%29.93 "Hg10 mi
7:53 PM85 °FOvercast.5 mph42%29.92 "Hg10 mi
6:53 PM86 °FPassing clouds.8 mph39%29.91 "Hg10 mi
5:53 PM88 °FPartly sunny.7 mph35%29.91 "Hg10 mi
Weather by CustomWeather, © 2014

See weather overviewHow to use our weather pages